Regional Weather Roundup
Issued by NWS Cleveland, OH

Home | Current Version | Previous Version | Graphics & Text | Print | Product List | Glossary On
Versions: 1 2 3 4 5 6 7 8 9 10 11 12 13 14 15 16 17 18 19 20 21 22 23 24 25 26 27 28 29 30 31 32 33 34 35 36 37 38 39 40 41 42 43 44 45 46 47 48 49 50
000
ASUS41 KCLE 161010
RWRCLE
OHIO REGIONAL WEATHER ROUNDUP
NATIONAL WEATHER SERVICE CLEVELAND, OH
500 AM EST SAT DEC 16 2017

NOTE: "FAIR" INDICATES FEW OR NO CLOUDS BELOW 12,000 FEET WITH NO
SIGNIFICANT WEATHER AND/OR OBSTRUCTIONS TO VISIBILITY.

OHZ001>008-015>018-024>027-034-035-043-044-161100-
   NORTHWEST OHIO

CITY           SKY/WX    TMP DP  RH WIND       PRES   REMARKS
DEFIANCE       CLOUDY    33  23  66 SW13      29.93F WCI  24
FINDLAY        CLOUDY    34  23  64 SW17      29.94F WCI  23
TOLEDO EXPRESS CLOUDY    33  25  72 SW12      29.91F WCI  24
TOLEDO EXEC    CLOUDY    32  24  72 SW12      29.93F WCI  23
LIMA           CLOUDY    32  25  75 SW13G22   29.97F WCI  22
$$

OHZ009>014-019>023-028>033-038-089-161100-
   NORTHEAST OHIO

CITY           SKY/WX    TMP DP  RH WIND       PRES   REMARKS
CLE-HOPKINS    LGT SNOW  31  26  82 SW13      29.98F WCI  21
CLE-LAKEFRONT  LGT SNOW  31  25  78 SW17      29.95F WCI  19
CUY CO. ARPT   NOT AVBL
LORAIN-ELYRIA  LGT SNOW  30  22  72 SW14      29.96F WCI  19
ASHTABULA      LGT SNOW  26  23  88 SW12      29.93F FOG     WCI  16
AKRON-CANTON   LGT SNOW  29  23  78 SW15      29.97F WCI  18
WOOSTER        LGT SNOW  29  23  78 SW12      29.98S WCI  19
MANSFIELD      CLOUDY    30  23  75 S24G43    29.96F WCI  16
YOUNGSTOWN     LGT SNOW  28  22  78 SW15G24   29.94F WCI  16
$$

OHZ042-051>053-060>062-070>072-077>081-161100-
  SOUTHWEST OHIO

CITY           SKY/WX    TMP DP  RH WIND       PRES   REMARKS
CINC-COVINGTON CLOUDY    33  25  72 S9        30.05F WCI  25
CINC-LUNKEN    CLOUDY    34  25  69 SW8       30.09F WCI  27
HAMILTON       CLOUDY    35  25  66 VRB5      30.07F
DAYTON         CLOUDY    31  25  78 SW12      30.03F WCI  22
WRIGHT-PAT AFB CLOUDY    33  24  70 SW9       30.03F WCI  25
DAYTON GENERAL CLOUDY    33  24  69 SW10      30.03F WCI  25
WILMINGTON     CLOUDY    32  25  75 SW13      30.04F WCI  22
$$

OHZ036-037-039>041-045>050-054>059-063>069-073>076-082>088-161100-
  CENTRAL AND SOUTHEAST OHIO

CITY           SKY/WX    TMP DP  RH WIND       PRES   REMARKS
COLUMBUS       CLOUDY    33  24  69 SW10      30.04F WCI  25
OSU AIRPORT    CLOUDY    32  25  75 SW13      30.02F WCI  22
BOLTON FIELD   CLOUDY    32  25  74 SW12      30.04F WCI  23
RICKENBACK AFB CLOUDY    32  24  72 SW10      30.05F WCI  24
NEWARK         CLOUDY    32  23  69 S9        30.04F WCI  24
MARION         NOT AVBL
LANCASTER      CLOUDY    32  24  72 SW8       30.06F WCI  25
ZANESVILLE     CLOUDY    32  21  64 SW12      30.05F WCI  23
NEW PHILLY     NOT AVBL
$$




USA.gov is the U.S. government's official web portal to all federal, state and local government web resources and services.